Location: Medlow Airstrip Trail, Medlow Bath NSW 2780, Australia
(33.6682°S, 150.3233°E)
Time: 23:46:28
(UTC+11:00)

N. Korean satellite - Visible Passes

Search period start: 17 January 2021 00:00
Search period end: 27 January 2021 00:00
Orbit: 453 x 502 km, 97.2° (Epoch: 16 January)

Date Brightness Start Highest point End Pass type
(mag) Time Alt. Az. Time Alt. Az. Time Alt. Az.
17 Jan 7.2 05:33:21 10° NNE 05:36:43 60° ESE 05:40:09 10° S visible
18 Jan 9.1 05:07:28 10° NE 05:10:17 24° ESE 05:13:08 10° SSE visible
19 Jan 10.1 04:42:59 10° E 04:43:57 11° ESE 04:44:54 10° SE visible
21 Jan 8.2 05:20:36 10° NE 05:23:47 37° ESE 05:27:03 10° S visible
22 Jan 9.6 04:55:08 10° ENE 04:57:23 17° ESE 04:59:41 10° SSE visible
24 Jan 7.1 05:33:55 10° NNE 05:37:18 62° ESE 05:40:47 10° S visible
25 Jan 9.0 05:07:58 10° NE 05:10:50 25° ESE 05:13:47 10° SSE visible
26 Jan 10.0 04:43:18 10° E 04:44:30 11° ESE 04:45:42 10° SE visible
